Flight Track Log - Related Links

Times and Time Zones

All times are in EDT time to prevent confusion due to time zone crossing. See the N888KG flight status page for this flight to view local times or setup timezone preferences in your user account.

Time Position Orientation Groundspeed Altitude Reporting Facility
EDT Latitude Longitude Course Direction KTS MPH feet Rate Location/Type
02:08PM 45.4540 -73.7470 223° Southwest 183 211 1,700  Level FlightAware ADS-B
02:08PM 45.4420 -73.7620 223° Southwest 186 214 3,100 4,400 Climbing FlightAware ADS-B
02:08PM 45.4340 -73.7700 213° Southwest 188 216 3,900 4,250 Climbing FlightAware ADS-B
02:08PM 45.4250 -73.7770 205° Southwest 188 216 4,800 4,065 Climbing FlightAware ADS-B
02:09PM 45.4100 -73.7850 199° South 191 220 6,000 3,730 Climbing FlightAware ADS-B
02:09PM 45.3950 -73.7920 198° South 201 231 7,100 3,257 Climbing FlightAware ADS-B
02:09PM 45.3790 -73.8000 201° Southwest 214 246 7,900 3,600 Climbing FlightAware ADS-B
02:10PM 45.3620 -73.8090 200° South 213 245 9,200 3,796 Climbing FlightAware ADS-B
02:10PM 45.3340 -73.8220 198° South 225 259 11,000 3,600 Climbing FlightAware ADS-B
02:11PM 45.3030 -73.8360 198° South 230 265 12,800 3,623 Climbing FlightAware ADS-B
02:11PM 45.2780 -73.8460 191° South 237 273 14,200 3,429 Climbing FlightAware ADS-B
02:11PM 45.2854 -73.8434 179° South 252 290 14,800 2,880 Climbing FlightAware ADS-B (CYOW)
02:11PM 45.2500 -73.8460 178° South 257 296 15,400 3,316 Climbing FlightAware ADS-B
02:12PM 45.2347 -73.8450 179° South 261 300 16,900 3,167 Climbing FlightAware ADS-B (CYOW)
02:12PM 45.2070 -73.8440 178° South 264 304 17,300 3,091 Climbing FlightAware ADS-B
02:12PM 45.1801 -73.8434 179° South 263 303 18,600 3,517 Climbing FlightAware ADS-B (CYOW)
02:12PM 45.1700 -73.8430 178° South 264 304 19,000 3,070 Climbing FlightAware ADS-B
02:13PM 45.1278 -73.8424 179° South 264 304 20,800 3,081 Climbing FlightAware ADS-B (CYOW)
02:13PM 45.1270 -73.8420 179° South 265 305 20,900 2,526 Climbing FlightAware ADS-B
02:14PM 45.0820 -73.8420 179° South 277 319 22,400 2,591 Climbing FlightAware ADS-B
02:14PM 45.0866 -73.8417 179° South 279 321 22,800 1,000 Climbing FlightAware ADS-B (CYOW)
02:14PM 45.0360 -73.8410 178° South 270 311 23,000 240 Climbing FlightAware ADS-B
02:15PM 45.0086 -73.8401 179° South 260 299 23,000  Level FlightAware ADS-B (CYOW)
02:15PM 44.9920 -73.8400 179° South 262 302 23,000 529 Level FlightAware ADS-B
02:15PM 44.9678 -73.8396 179° South 262 302 23,300 1,000 Climbing FlightAware ADS-B (CYOW)
02:15PM 44.9560 -73.8390 179° South 267 307 23,500 1,800 Climbing FlightAware ADS-B
02:16PM 44.9338 -73.8389 179° South 261 300 24,200 2,000 Climbing FlightAware ADS-B (CYOW)
02:16PM 44.9190 -73.8390 178° South 259 298 24,500 2,154 Climbing FlightAware ADS-B
02:16PM 44.8840 -73.8380 179° South 258 297 25,600 2,328 Climbing FlightAware ADS-B
02:17PM 44.8398 -73.8374 179° South 265 305 27,100 2,429 Climbing FlightAware ADS-B (CYOW)
02:17PM 44.8340 -73.8370 179° South 267 307 27,300 2,600 Climbing FlightAware ADS-B
02:17PM 44.8032 -73.8368 179° South 269 310 28,400 3,000 Climbing FlightAware ADS-B (CYOW)
02:18PM 44.7890 -73.8360 178° South 264 304 29,100 3,290 Climbing FlightAware ADS-B
02:18PM 44.7706 -73.8361 179° South 256 295 30,100 2,800 Climbing FlightAware ADS-B (CYOW)
02:18PM 44.7540 -73.8360 179° South 256 295 30,500 2,739 Climbing FlightAware ADS-B
02:19PM 44.7110 -73.8350 179° South 250 288 32,200 2,640 Climbing FlightAware ADS-B
02:19PM 44.7234 -73.8354 179° South 249 287 32,700 1,915 Climbing FlightAware ADS-B (CYOW)
02:20PM 44.6568 -73.8344 179° South 255 293 33,700 1,800 Climbing FlightAware ADS-B (CYOW)
02:20PM 44.6480 -73.8340 178° South 258 297 33,900 1,579 Climbing FlightAware ADS-B
02:20PM 44.6120 -73.8340 179° South 264 304 34,700 1,588 Climbing FlightAware ADS-B
02:20PM 44.6425 -73.8341 179° South 263 303 34,800 1,543 Climbing FlightAware ADS-B (CYOW)
02:21PM 44.5724 -73.8330 179° South 268 308 35,600 1,455 Climbing FlightAware ADS-B (CYOW)
02:21PM 44.5680 -73.8330 178° South 269 310 35,600 1,800 Level FlightAware ADS-B
02:21PM 44.5382 -73.8324 179° South 265 305 36,500 1,627 Climbing FlightAware ADS-B (CYOW)
02:22PM 44.4940 -73.8320 179° South 268 308 37,200 1,412 Climbing FlightAware ADS-B
02:22PM 44.4957 -73.8318 179° South 268 308 37,300 1,029 Climbing FlightAware ADS-B (CYOW)
02:22PM 44.4508 -73.8310 179° South 274 315 37,800 938 Climbing FlightAware ADS-B (CYOW)
02:22PM 44.4490 -73.8310 178° South 275 316 37,800 973 Level FlightAware ADS-B
02:23PM 44.4030 -73.8300 178° South 282 325 38,400 1,037 Climbing FlightAware ADS-B
02:24PM 44.3475 -73.8290 179° South 290 334 39,200 1,019 Climbing FlightAware ADS-B (CYOW)
02:24PM 44.3330 -73.8290 179° South 292 336 39,300 1,050 Climbing FlightAware ADS-B
02:24PM 44.2895 -73.8280 179° South 296 341 39,900 592 Climbing FlightAware ADS-B (CYOW)
02:25PM 44.2837 -73.8279 179° South 308 354 40,000 133 Climbing FlightAware ADS-B (CYOW)
02:25PM 44.2260 -73.8270 179° South 310 357 40,000  Level FlightAware ADS-B
02:26PM 44.1953 -73.8265 180° South 315 362 40,000  Level FlightAware ADS-B (CYOW)
02:26PM 44.1700 -73.8260 179° South 318 366 40,000  Level FlightAware ADS-B
02:26PM 44.1288 -73.8254 179° South 321 369 40,000  Level FlightAware ADS-B (CYOW)
02:26PM 44.1200 -73.8250 179° South 323 372 40,000  Level FlightAware ADS-B
02:27PM 44.0770 -73.8250 179° South 329 379 40,000  Level FlightAware ADS-B
02:27PM 44.0869 -73.8248 179° South 330 380 40,000  Level FlightAware ADS-B (CYOW)
02:27PM 44.0190 -73.8240 179° South 331 381 40,000  Level FlightAware ADS-B
02:28PM 43.9812 -73.8231 179° South 332 382 40,000  Level FlightAware ADS-B (CYOW)
02:28PM 43.9289 -73.8222 179° South 336 387 40,000  Level FlightAware ADS-B (CYOW)
02:28PM 43.9270 -73.8220 179° South 337 388 40,000  Level FlightAware ADS-B
02:29PM 43.8664 -73.8212 179° South 345 397 40,000  Level FlightAware ADS-B (CYOW)
02:29PM 43.8600 -73.8210 179° South 348 400 40,000 585 Level FlightAware ADS-B
02:30PM 43.7997 -73.8201 179° South 353 406 40,400 646 Climbing FlightAware ADS-B (CYOW)
02:30PM 43.7570 -73.8190 179° South 357 411 40,700 581 Climbing FlightAware ADS-B
02:30PM 43.7501 -73.8193 179° South 356 410 40,700 968 Level FlightAware ADS-B (CYOW)
02:31PM 43.7030 -73.8190 179° South 357 411 41,200 1,000 Climbing FlightAware ADS-B
02:31PM 43.7007 -73.8185 179° South 356 410 41,200 1,400 Level FlightAware ADS-B (CYOW)
02:31PM 43.6590 -73.8180 179° South 347 399 41,900 1,600 Climbing FlightAware ADS-B
02:31PM 43.6523 -73.8178 179° South 345 397 42,000 1,636 Climbing FlightAware ADS-B (CYOW)
02:32PM 43.6116 -73.8171 179° South 333 383 42,800 1,412 Climbing FlightAware ADS-B (CYOW)
02:32PM 43.5980 -73.8170 179° South 333 383 42,800 563 Level FlightAware ADS-B
02:32PM 43.5533 -73.8161 179° South 334 384 43,100 500 Climbing FlightAware ADS-B (CYOW)
02:32PM 43.5450 -73.8160 179° South 335 386 43,100 581 Level FlightAware ADS-B
02:33PM 43.5061 -73.8152 179° South 333 383 43,400 878 Climbing FlightAware ADS-B (CYOW)
02:33PM 43.4810 -73.8150 179° South 333 383 43,700 977 Climbing FlightAware ADS-B
02:34PM 43.4429 -73.8142 179° South 329 379 44,100 448 Climbing FlightAware ADS-B (CYOW)
02:34PM 43.3770 -73.8132 179° South 341 392 44,200 220 Climbing FlightAware ADS-B (CYOW)
02:35PM 43.3194 -73.8123 179° South 345 397 44,400 333 Climbing FlightAware ADS-B (CYOW)
02:35PM 43.2728 -73.8116 179° South 347 399 44,600 343 Climbing FlightAware ADS-B (CYOW)
02:36PM 43.2025 -73.8104 179° South 348 400 44,800 237 Climbing FlightAware ADS-B (CYOW)
02:37PM 43.1556 -73.8097 179° South 356 410 44,900 158 Climbing FlightAware ADS-B (CYOW)
02:37PM 43.0786 -73.8085 179° South 365 420 45,000 83 Climbing FlightAware ADS-B (CYOW)
02:38PM 43.0200 -73.8080 179° South 374 430 45,000  Level FlightAware ADS-B
02:38PM 42.9987 -73.8072 179° South 375 432 45,000  Level FlightAware ADS-B (CYOW)
02:39PM 42.9560 -73.8060 179° South 379 436 45,000  Level FlightAware ADS-B
02:39PM 42.9482 -73.8063 179° South 378 435 45,000  Level FlightAware ADS-B (CYOW)
02:39PM 42.8712 -73.8051 179° South 379 436 45,000  Level FlightAware ADS-B (CYOW)
02:40PM 42.8204 -73.8043 179° South 379 436 45,000  Level FlightAware ADS-B (CYOW)
02:41PM 42.7520 -73.8032 181° South 374 430 45,000  Level FlightAware ADS-B (CYOW)
02:41PM 42.6664 -73.8048 181° South 369 425 45,000  Level FlightAware ADS-B (CYOW)
02:41PM 42.6806 -73.8072 180° South 376 433 45,000  Level Boston Center
02:47PM 42.1340 -73.8000 180° South  Level FlightAware Approximate
02:47PM 42.1532 -73.8137 181° South 365 420 45,000  Level FlightAware ADS-B (CYOW)
02:48PM 42.0536 -73.8289 181° South 363 418 45,000  Level Boston Center
02:54PM 41.4560 -74.1175 200° South 357 411 45,000  Level FlightAware ADS-B (KWWD)
02:54PM 41.4057 -74.1415 200° South 357 411 45,000  Level FlightAware ADS-B (KWWD)
02:56PM 41.2894 -74.1968 200° South 357 411 45,000  Level FlightAware ADS-B (KWWD)
02:56PM 41.2408 -74.2198 200° South 358 412 45,000  Level FlightAware ADS-B (KWWD)
02:57PM 41.2002 -74.2390 200° South 358 412 45,000  Level FlightAware ADS-B (KPHL)
02:57PM 41.1113 -74.2810 200° South 358 412 45,000  Level FlightAware ADS-B (KWWD)
02:58PM 41.1606 -74.2577 200° South 359 413 45,000  Level FlightAware ADS-B (KPHL)
02:59PM 40.9650 -74.3498 200° South 359 413 45,000  Level FlightAware ADS-B (KPHL)
03:00PM 40.9125 -74.3744 200° South 358 412 45,000  Level FlightAware ADS-B (KPHL)
03:00PM 40.8850 -74.3873 200° South 359 413 45,000  Level FlightAware ADS-B (KPHL)
03:01PM 40.8279 -74.4140 200° South 359 413 45,000  Level FlightAware ADS-B (KPHL)
03:01PM 40.7572 -74.4470 200° South 359 413 45,000  Level FlightAware ADS-B (KWWD)
03:02PM 40.7070 -74.4703 199° South 357 411 45,000  Level FlightAware ADS-B (KPHL)
03:03PM 40.6199 -74.5108 199° South 357 411 45,000  Level FlightAware ADS-B (KWWD)
03:03PM 40.6081 -74.5163 200° South 358 412 45,000  Level FlightAware ADS-B
03:03PM 40.6059 -74.5173 199° South 357 411 45,000  Level FlightAware ADS-B
03:04PM 40.5406 -74.5475 199° South 355 409 45,000  Level FlightAware ADS-B (KWWD)
03:04PM 40.5069 -74.5632 199° South 355 409 45,000  Level FlightAware ADS-B (KPHL)
03:05PM 40.4652 -74.5825 200° South 354 407 45,000  Level FlightAware ADS-B (KPHL)
03:05PM 40.3849 -74.6195 200° South 354 407 45,000  Level FlightAware ADS-B (KPHL)
03:06PM 40.3513 -74.6349 199° South 353 406 45,000  Level FlightAware ADS-B (KPHL)
03:06PM 40.3153 -74.6516 200° South 345 397 45,000  Level FlightAware ADS-B (KWWD)
03:07PM 40.2709 -74.6719 199° South 353 406 45,000  Level FlightAware ADS-B (KPHL)
03:07PM 40.2448 -74.6839 200° South 345 397 45,000  Level FlightAware ADS-B (KWWD)
03:07PM 40.2005 -74.7042 200° South 345 397 45,000  Level FlightAware ADS-B (KWWD)
03:08PM 40.1544 -74.7252 200° South 345 397 45,000  Level FlightAware ADS-B (KWWD)
03:08PM 40.1419 -74.7310 200° South 351 404 45,000  Level FlightAware ADS-B
03:09PM 40.0853 -74.7569 199° South 351 404 45,000  Level FlightAware ADS-B (KPHL)
03:09PM 40.0687 -74.7644 200° South 343 395 45,000  Level FlightAware ADS-B (KWWD)
03:09PM 40.0396 -74.7777 199° South 352 405 45,000  Level FlightAware ADS-B
03:09PM 40.0163 -74.7883 200° South 344 396 45,000  Level FlightAware ADS-B (KWWD)
03:09PM 40.0396 -74.7777 199° South 352 405 45,000  Level FlightAware ADS-B
03:10PM 39.9687 -74.8099 200° South 344 396 45,000  Level FlightAware ADS-B (KWWD)
03:10PM 39.9601 -74.8138 199° South 353 406 45,000  Level FlightAware ADS-B
03:10PM 39.9766 -74.8063 199° South 353 406 45,000  Level FlightAware ADS-B
03:11PM 39.9083 -74.8374 199° South 353 406 45,000  Level FlightAware ADS-B (KPHL)
03:11PM 39.8867 -74.8471 200° South 346 398 45,000  Level FlightAware ADS-B (KWWD)
03:11PM 39.8380 -74.8692 199° South 354 407 45,000  Level FlightAware ADS-B
03:11PM 39.8128 -74.8807 199° South 353 406 45,000  Level FlightAware ADS-B
03:11PM 39.8013 -74.8858 199° South 354 407 45,000  Level FlightAware ADS-B
03:12PM 39.7850 -74.8932 200° South 345 397 45,000  Level FlightAware ADS-B (KWWD)
03:12PM 39.7684 -74.9007 199° South 354 407 45,000  Level FlightAware ADS-B
03:12PM 39.7345 -74.9160 199° South 353 406 45,000  Level FlightAware ADS-B
03:12PM 39.7305 -74.9178 199° South 353 406 45,000  Level FlightAware ADS-B
03:13PM 39.6803 -74.9425 202° Southwest 352 405 45,000  Level FlightAware ADS-B (KWWD)
03:13PM 39.6358 -74.9659 202° Southwest 351 404 45,000  Level FlightAware ADS-B
03:14PM 39.5818 -74.9942 202° Southwest 350 403 45,000  Level FlightAware ADS-B (KWWD)
03:15PM 39.5313 -75.0206 202° Southwest 352 405 45,000  Level FlightAware ADS-B (KWWD)
03:15PM 39.4915 -75.0414 202° Southwest 352 405 45,000  Level FlightAware ADS-B (KPHL)
03:16PM 39.4412 -75.0678 202° Southwest 352 405 45,000  Level FlightAware ADS-B (KPHL)
03:16PM 39.4162 -75.0809 202° Southwest 352 405 45,000  Level FlightAware ADS-B
03:17PM 39.3906 -75.0944 202° Southwest 353 406 45,000  Level FlightAware ADS-B (KPHL)
03:17PM 39.3096 -75.1367 202° Southwest 353 406 45,000  Level FlightAware ADS-B
03:18PM 39.2484 -75.1687 202° Southwest 354 407 45,000  Level FlightAware ADS-B (KPHL)
03:18PM 39.1857 -75.2014 202° Southwest 354 407 45,000  Level FlightAware ADS-B
03:19PM 39.1484 -75.2208 203° Southwest 345 397 45,000  Level FlightAware ADS-B (KWWD)
03:19PM 39.0925 -75.2500 202° Southwest 353 406 45,000  Level FlightAware ADS-B (KPHL)
03:20PM 39.0667 -75.2633 203° Southwest 346 398 45,000  Level FlightAware ADS-B (KWWD)
03:20PM 39.0519 -75.2710 203° Southwest 346 398 45,000  Level FlightAware ADS-B (KWWD)
03:20PM 38.9990 -75.2984 202° Southwest 353 406 45,000  Level FlightAware ADS-B (KPHL)
03:21PM 38.9715 -75.3127 202° Southwest 353 406 45,000  Level FlightAware ADS-B
03:22PM 38.8993 -75.3500 202° Southwest 353 406 45,000  Level FlightAware ADS-B
03:22PM 38.8848 -75.3575 203° Southwest 345 397 45,000  Level FlightAware ADS-B (KWWD)
03:22PM 38.8658 -75.3673 203° Southwest 345 397 45,000  Level FlightAware ADS-B (KWWD)
03:22PM 38.8255 -75.3881 203° Southwest 345 397 45,000  Level FlightAware ADS-B (KWWD)
03:23PM 38.7629 -75.4203 202° Southwest 355 409 45,000  Level FlightAware ADS-B (KPHL)
03:24PM 38.6867 -75.4594 202° Southwest 349 402 45,000  Level FlightAware ADS-B (KWWD)
03:25PM 38.6651 -75.4705 202° Southwest 357 411 45,000  Level FlightAware ADS-B
03:25PM 38.5757 -75.5163 202° Southwest 350 403 45,000  Level FlightAware ADS-B (KWWD)
03:26PM 38.5128 -75.5485 202° Southwest 352 405 45,000  Level FlightAware ADS-B (KWWD)
03:26PM 38.4625 -75.5741 202° Southwest 351 404 45,000  Level FlightAware ADS-B (KWWD)
03:27PM 38.4212 -75.5952 202° Southwest 360 414 45,000  Level FlightAware ADS-B
03:27PM 38.3550 -75.6288 202° Southwest 361 415 45,000  Level FlightAware ADS-B (KWWD)
03:28PM 38.2915 -75.6610 202° Southwest 363 418 45,000  Level FlightAware ADS-B (KWWD)
03:29PM 38.2313 -75.6915 202° Southwest 364 419 45,000  Level FlightAware ADS-B (KWWD)
03:29PM 38.1812 -75.7168 202° Southwest 365 420 45,000  Level FlightAware ADS-B (KWWD)
03:30PM 38.1341 -75.7406 202° Southwest 365 420 45,000  Level FlightAware ADS-B (KWWD)
03:30PM 38.0849 -75.7655 202° Southwest 365 420 45,000  Level FlightAware ADS-B
03:31PM 38.0292 -75.7936 202° Southwest 366 421 45,000  Level FlightAware ADS-B (KWWD)
03:31PM 37.9773 -75.8196 202° Southwest 366 421 45,000  Level FlightAware ADS-B (KWWD)
03:32PM 37.9298 -75.8435 202° Southwest 366 421 45,000  Level FlightAware ADS-B (KWWD)
03:32PM 37.8826 -75.8671 202° Southwest 366 421 45,000  Level FlightAware ADS-B (KWWD)
03:33PM 37.8357 -75.8906 202° Southwest 367 422 45,000  Level FlightAware ADS-B (KWWD)
03:34PM 37.7853 -75.9158 202° Southwest 366 421 45,000  Level FlightAware ADS-B (KWWD)
03:34PM 37.7349 -75.9410 202° Southwest 366 421 45,000  Level FlightAware ADS-B
03:35PM 37.6787 -75.9690 202° Southwest 368 423 45,000  Level FlightAware ADS-B (KWWD)
03:35PM 37.6312 -75.9927 202° Southwest 368 423 45,000  Level FlightAware ADS-B (KWWD)
03:36PM 37.5767 -76.0197 202° Southwest 368 423 45,000  Level FlightAware ADS-B
03:36PM 37.5226 -76.0466 202° Southwest 368 423 45,000  Level FlightAware ADS-B (KWWD)
03:37PM 37.4745 -76.0705 202° Southwest 368 423 45,000  Level FlightAware ADS-B (KWWD)
03:37PM 37.4264 -76.0942 202° Southwest 367 422 45,000  Level FlightAware ADS-B (KWWD)
03:38PM 37.3648 -76.1247 202° Southwest 368 423 45,000  Level FlightAware ADS-B (KWWD)
03:39PM 37.2964 -76.1584 202° Southwest 368 423 45,000  Level FlightAware ADS-B
03:39PM 37.2416 -76.1853 202° Southwest 364 419 45,000  Level FlightAware ADS-B (KWWD)
03:40PM 37.1927 -76.2094 202° Southwest 364 419 45,000  Level FlightAware ADS-B (KWWD)
03:40PM 37.1418 -76.2344 202° Southwest 365 420 45,000  Level FlightAware ADS-B (KWWD)
03:41PM 37.0950 -76.2573 202° Southwest 365 420 45,000  Level FlightAware ADS-B (KWWD)
03:41PM 37.0314 -76.2884 202° Southwest 366 421 45,000  Level FlightAware ADS-B (KWWD)
03:42PM 36.9392 -76.3326 199° South 378 435 45,000  Level FlightAware ADS-B
03:43PM 36.8492 -76.3689 199° South 377 434 45,000  Level FlightAware ADS-B
03:44PM 36.7393 -76.4137 199° South 382 440 45,000  Level FlightAware ADS-B
03:45PM 36.6712 -76.4412 199° South 383 441 45,000  Level FlightAware ADS-B
03:45PM 36.6658 -76.4434 198° South 376 433 45,000  Level FlightAware ADS-B (KWWD)
03:46PM 36.6036 -76.4685 198° South 383 441 45,000  Level FlightAware ADS-B
03:46PM 36.5766 -76.4793 198° South 376 433 45,000  Level FlightAware ADS-B (KWWD)
03:47PM 36.5172 -76.5032 199° South 384 442 45,000  Level FlightAware ADS-B
03:47PM 36.4359 -76.5358 198° South 385 443 45,000  Level FlightAware ADS-B
03:48PM 36.3340 -76.5765 198° South 386 444 45,000  Level FlightAware ADS-B
03:49PM 36.2874 -76.5951 198° South 386 444 45,000  Level FlightAware ADS-B
03:51PM 36.0551 -76.6874 198° South 387 445 45,000  Level FlightAware ADS-B
03:52PM 35.9253 -76.7361 198° South 387 445 45,000  Level Washington Center
03:53PM 35.8206 -76.7806 199° South 387 445 45,000  Level Washington Center
03:54PM 35.7178 -76.8200 197° South 387 445 45,000  Level Washington Center
03:55PM 35.6236 -76.8544 197° South 387 445 45,000  Level Washington Center
03:56PM 35.5189 -76.8961 198° South 387 445 45,000  Level Washington Center
03:57PM 35.4142 -76.9353 197° South 387 445 45,000  Level Washington Center
03:58PM 35.3114 -76.9767 198° South 387 445 45,000  Level Washington Center
03:59PM 35.2044 -77.0206 199° South 392 451 45,000  Level Washington Center
04:00PM 35.0892 -77.0644 197° South 397 457 45,000  Level Washington Center
04:01PM 34.9842 -77.1081 199° South 397 457 45,000  Level Washington Center
04:02PM 34.8858 -77.1417 196° South 403 464 45,000  Level Washington Center
04:03PM 34.7706 -77.1875 198° South 403 464 45,000  Level Washington Center
04:04PM 34.6675 -77.2283 198° South 403 464 45,000  Level Washington Center
04:05PM 34.5606 -77.2692 197° South 403 464 45,000  Level Washington Center
04:06PM 34.4536 -77.3097 197° South 403 464 45,000  Level Washington Center
04:07PM 34.3447 -77.3478 196° South 403 464 45,000  Level Washington Center
04:08PM 34.2397 -77.3908 199° South 403 464 45,000  Level Washington Center
04:09PM 34.1306 -77.4311 197° South 403 464 45,000  Level Washington Center
04:10PM 34.0408 -77.4622 196° South 409 471 45,000  Level Jacksonville Center
04:11PM 33.9319 -77.5014 197° South 414 476 45,000  Level Jacksonville Center
04:12PM 33.8231 -77.5431 198° South 414 476 45,000  Level Jacksonville Center
04:13PM 33.7164 -77.5819 197° South 408 470 45,000  Level Jacksonville Center
04:14PM 33.6075 -77.6236 198° South 408 470 45,000  Level Jacksonville Center
04:15PM 33.4986 -77.6650 198° South 413 475 45,000  Level Jacksonville Center
04:16PM 33.3917 -77.7036 197° South 413 475 45,000  Level Jacksonville Center
04:17PM 33.2828 -77.7472 199° South 413 475 45,000  Level Jacksonville Center
04:18PM 33.1739 -77.7881 197° South 413 475 45,000  Level Jacksonville Center
04:19PM 33.0669 -77.8264 197° South 413 475 45,000  Level Jacksonville Center
04:20PM 32.9561 -77.8697 198° South 413 475 45,000  Level Jacksonville Center
04:21PM 32.8489 -77.9056 196° South 413 475 45,000  Level Jacksonville Center
04:22PM 32.7400 -77.9461 197° South 413 475 45,000  Level Jacksonville Center
04:23PM 32.6289 -77.9892 198° South 413 475 45,000  Level Jacksonville Center
04:24PM 32.5197 -78.0247 195° South 413 475 45,000  Level Jacksonville Center
04:25PM 32.4106 -78.0647 197° South 413 475 45,000  Level Jacksonville Center
04:26PM 32.3014 -78.1025 196° South 413 475 45,000  Level Jacksonville Center
04:27PM 32.1944 -78.1425 198° South 413 475 45,000  Level Jacksonville Center
04:28PM 32.0853 -78.1875 199° South 413 475 45,000  Level Jacksonville Center
04:29PM 31.9739 -78.2225 195° South 413 475 45,000  Level Jacksonville Center
04:30PM 31.8669 -78.2669 199° South 413 475 45,000  Level Jacksonville Center
04:31PM 31.7597 -78.3017 195° South 408 470 45,000  Level Jacksonville Center
04:32PM 31.6467 -78.3464 199° South 415 478 45,000  Level Jacksonville Center
04:33PM 31.5375 -78.3858 197° South 415 478 45,000  Level Jacksonville Center
04:34PM 31.4261 -78.4253 197° South 415 478 45,000  Level Jacksonville Center
04:35PM 31.3167 -78.4644 197° South 408 470 45,000  Level Jacksonville Center
04:36PM 31.2053 -78.5014 196° South 415 478 45,000  Level Jacksonville Center
04:37PM 31.0919 -78.5431 197° South 415 478 45,000  Level Jacksonville Center
04:38PM 30.9806 -78.5822 197° South 415 478 45,000  Level Jacksonville Center
04:39PM 30.8714 -78.6211 197° South 415 478 45,000  Level Jacksonville Center
04:40PM 30.7619 -78.6597 197° South 415 478 45,000  Level Jacksonville Center
04:41PM 30.6547 -78.6983 197° South 425 489 45,000  Level Jacksonville Center
04:43PM 30.4961 -78.7531 197° South 420 483 45,000  Level Miami Center
04:44PM 30.3808 -78.7928 197° South 426 490 45,000  Level Miami Center
04:45PM 30.2492 -78.8397 197° South 422 486 45,000  Level Miami Center
04:46PM 30.1372 -78.8786 197° South 422 486 45,000  Level Miami Center
04:47PM 30.0211 -78.9183 197° South 423 487 45,000  Level Miami Center
04:48PM 29.9147 -78.9567 197° South 416 479 45,000  Level Miami Center
04:49PM 29.8003 -78.9931 195° South 418 481 45,000  Level Miami Center
04:50PM 29.6817 -79.0164 190° South 423 487 45,000  Level Miami Center
04:51PM 29.5383 -79.0428 189° South 425 489 45,000  Level Miami Center
04:52PM 29.4192 -79.0639 189° South 434 499 45,000 -240 Level Miami Center
04:53PM 29.3036 -79.0839 189° South 427 491 44,500 -774 Descending Miami Center
04:54PM 29.1956 -79.1114 193° South 410 472 43,400 -1,122 Descending Miami Center
04:55PM 29.1244 -79.1861 223° Southwest 355 409 42,200 -1,401 Descending Miami Center
05:01PM 28.4634 -79.2541 183° South 430 495 33,500 -1,504 Descending FlightAware ADS-B
05:02PM 28.3870 -79.2586 183° South 416 479 32,100 -2,222 Descending FlightAware ADS-B
05:03PM 28.3045 -79.2654 188° South 434 499 30,500 -2,400 Descending FlightAware ADS-B
05:03PM 28.2254 -79.2797 189° South 443 510 28,900 -2,278 Descending FlightAware ADS-B
05:04PM 28.1454 -79.2949 189° South 441 507 27,500 -2,325 Descending FlightAware ADS-B
05:05PM 28.0703 -79.3102 199° South 422 486 25,800 -2,283 Descending FlightAware ADS-B
05:06PM 27.9811 -79.3610 209° Southwest 401 461 23,200 -1,902 Descending FlightAware ADS-B
05:07PM 27.8626 -79.4336 209° Southwest 397 457 21,900 -1,667 Descending FlightAware ADS-B
05:07PM 27.7985 -79.4730 209° Southwest 396 456 20,700 -1,860 Descending FlightAware ADS-B
05:08PM 27.7075 -79.5288 209° Southwest 388 447 18,800 -1,869 Descending FlightAware ADS-B
05:09PM 27.6340 -79.5739 209° Southwest 380 437 16,900 -1,920 Descending FlightAware ADS-B
05:10PM 27.5517 -79.6241 209° Southwest 374 430 15,600 -1,950 Descending FlightAware ADS-B
05:11PM 27.5035 -79.6536 209° Southwest 369 425 14,300 -1,875 Descending FlightAware ADS-B
05:11PM 27.4257 -79.7012 209° Southwest 360 414 13,100 -1,667 Descending FlightAware ADS-B
05:13PM 27.3078 -79.7736 209° Southwest 353 406 10,800 -1,611 Descending Miami Center
05:14PM 27.2253 -79.8231 208° Southwest 317 365 9,100 -1,355 Descending Miami Center
05:15PM 27.1533 -79.8664 208° Southwest 287 330 8,000 -832 Descending Miami Center
05:20PM 26.8240 -80.0928 218° Southwest 227 261 3,900 -872 Descending FlightAware ADS-B (RJTF)
05:21PM 26.7950 -80.1154 194° South 223 257 2,800 -1,433 Descending FlightAware ADS-B (RJTF)
05:22PM 26.7108 -80.1190 183° South 211 243 700 -870 Descending FlightAware ADS-B (RJTF)
05:23PM 26.6733 -80.1028 183° South 176 203 800 122 Climbing Miami Center
05:25PM 26.6667 -80.0833 110° East  Level FlightAware Approximate

Login

Don't have an account? Register now (free) for customized features, flight alerts, and more!